Regional Weather Roundup
Issued by NWS

Home | Current Version | Previous Version | Text Only | Print | Product List | Glossary Off
Versions: 1 2 3 4 5 6 7 8 9 10 11 12 13 14 15 16 17 18 19 20 21 22 23 24 25 26 27 28 29 30 31 32 33 34 35 36 37 38 39 40 41 42 43 44 45 46 47 48 49 50

000
ASUS43 KDMX 030703
RWRIA

WEATHER ROUNDUP FOR IOWA
NATIONAL WEATHER SERVICE DES MOINES IA
200 AM CDT TUE MAY 03 2016

NOTE: "FAIR" INDICATES FEW OR NO CLOUDS BELOW 12,000 FEET WITH NO
SIGNIFICANT WEATHER AND/OR OBSTRUCTIONS TO VISIBILITY.

* - THESE STATIONS ARE NOT NWS STATIONS...THUS NOT UNDER NWS
QUALITY CONTROL.  THEY ALSO DO NOT REPORT WEATHER SUCH
AS PRECIPITATION OR FOG.

IAZ001>003-012>014-020>022-031>034-043>046-030800-
   NORTHWEST IOWA

CITY           SKY/WX    TMP DP  RH WIND       PRES   REMARKS
CARROLL *      CLEAR     45  41  87 CALM      30.04F
CHEROKEE *     CLEAR     38  38 100 CALM      30.04S FOG
DENISON *      CLEAR     41  39  93 CALM      30.04R
LE MARS *      CLEAR     41  41 100 CALM      30.05S
ORANGE CITY *  CLEAR     48  39  71 CALM      30.04S
SHELDON *      CLEAR     43  39  87 SW5       30.02F
SIOUX CITY     PTCLDY    43  40  89 CALM      30.04F
SPENCER        CLEAR     42  40  92 CALM      30.03S
STORM LAKE *   CLEAR     50  36  57 W6        30.04F
$$

IAZ055>058-069>071-079>083-090>094-030800-
   SOUTHWEST IOWA

CITY           SKY/WX    TMP DP  RH WIND       PRES   REMARKS
ATLANTIC *     PTCLDY    41  41 100 CALM      30.06S
AUDUBON *      CLEAR     39  36  87 CALM      30.06S
CLARINDA *       N/A    N/A N/A N/A MISG        N/A
COUNCIL BLFS * CLEAR     50  41  71 CALM      30.05F
CRESTON *      MOCLDY    48  41  76 SW8       30.07S
HARLAN  *      CLEAR     43  41  93 CALM      30.08F
LAMONI         CLEAR     45  42  89 SW3       30.05F
SHENANDOAH *   PTCLDY    45  45 100 CALM      30.07S
$$

IAZ047>049-059>061-072>074-084-030800-
   CENTRAL IOWA

CITY           SKY/WX    TMP DP  RH WIND       PRES   REMARKS
AMES           CLEAR     41  40  96 CALM      30.04S
ANKENY *       CLEAR     39  39 100 CALM      30.05S FOG
BOONE *        CLEAR     46  43  87 SW8       30.03F
CHARITON *     CLEAR     45  43  93 SW6       30.05S
DES MOINES     PTCLDY    45  40  82 SW3       30.05S
GRINNELL*      CLEAR     41  39  93 SW5       30.05S
KNOXVILLE *    CLEAR     45  43  93 SW6       30.04S
MARSHALLTOWN   CLEAR     43  40  89 SW6       30.03F
NEWTON *       CLEAR     45  45 100 SW5       30.04F
PELLA *        CLEAR     44  44  98 SW3       30.06S FOG
$$

IAZ004>006-015-016-023>025-035-036-030800-
   NORTH CENTRAL IOWA

CITY           SKY/WX    TMP DP  RH WIND       PRES   REMARKS
ALGONA *       CLEAR     46  43  87 SW8       30.03S
CLARION *      CLEAR     45  41  87 SW6       30.03F
ESTHERVILLE    PTCLDY    45  38  76 SW6       30.01F
FORT DODGE *   CLEAR     45  39  81 CALM      30.04S
MASON CITY     CLEAR     49  40  71 SW10      30.03F
FOREST CITY *  FOG       37  37 100 CALM      30.02F VSB 1/2
WEBSTER CITY * CLEAR     45  43  93 SW10      30.02S
IOWA FALLS *     N/A     46  41  81 SW7       30.04S
$$

IAZ007>011-017>019-026>030-037>042-050>054-066-030800-
   NORTHEAST IOWA

CITY           SKY/WX    TMP DP  RH WIND       PRES   REMARKS
CEDAR RAPIDS   CLEAR     43  41  93 W9        30.02S
CHARLES CITY * CLEAR     46  41  81 SW6       30.02F
CLINTON *      CLEAR     44  42  93 W5        30.01F
DECORAH *      PTCLDY    48  39  71 CALM      30.00S
DUBUQUE        CLEAR     43  38  82 S3        30.00F
MONTICELLO *   CLEAR     41  39  93 CALM      30.01F
OELWEIN *      CLEAR     45  41  87 W7        30.02F
WATERLOO       CLEAR     42  39  89 CALM      30.02F
$$

IAZ064-065-067-068-078-030800-
   EAST CENTRAL IOWA

CITY           SKY/WX    TMP DP  RH WIND       PRES   REMARKS
DAVENPORT      CLOUDY    45  41  86 W5        30.02F
IOWA CITY      CLEAR     45  41  86 SW3       30.04S
MT. PLEASANT * CLOUDY    52  46  82 W3        30.03F
MUSCATINE *    CLEAR     48  43  81 CALM      30.03S
QUAD CITIES    CLEAR     43  40  89 CALM      30.01F
$$

IAZ062-063-075>077-085>089-095>099-030800-
   SOUTHEAST IOWA

CITY           SKY/WX    TMP DP  RH WIND       PRES   REMARKS
BURLINGTON     CLOUDY    50  47  89 NW6       30.02F
FAIRFIELD *    CLOUDY    48  43  81 W6        30.04S
FORT MADISON * CLOUDY    48  46  93 CALM      30.04S
KEOKUK *       CLOUDY    50  46  87 CALM      30.03S
OSKALOOSA *      N/A     41  39  93 W7        30.05S
OTTUMWA        CLEAR     40  40 100 W7        30.04F FOG
WASHINGTON *   MOCLDY    46  46 100 W6        30.05S
$$

ABBREVIATIONS USED IN REMARKS
   TC - TEMPERATURES IN CELSIUS
  WCI - WIND CHILL INDEX
   HX - HEAT INDEX
  VSB - VISIBILITY
$$




USA.gov is the U.S. government's official web portal to all federal, state and local government web resources and services.